Regional Weather Roundup
Issued by NWS

Home | Current Version | Previous Version | Graphics & Text | Print | Product List | Glossary On
Versions: 1 2 3 4 5 6 7 8 9 10 11 12 13 14 15 16 17 18 19 20 21 22 23 24 25 26 27 28 29 30 31 32 33 34 35 36 37 38 39 40 41 42 43 44 45 46 47 48 49 50
590
ASUS43 KLSX 180307
RWRMO

WEATHER SUMMARY FOR MISSOURI
NATIONAL WEATHER SERVICE SPRINGFIELD MO
900 PM CST FRI NOV 17 2017

NOTE: "FAIR" INDICATES FEW OR NO CLOUDS BELOW 12,000 FEET WITH NO
       SIGNIFICANT WEATHER AND/OR OBSTRUCTIONS TO VISIBILITY.
       CURRENT SKY AND/OR WEATHER CONDITIONS ARE NOT AVAILABLE FOR
       CHILLICOTHE AND FARMINGTON.

MOZ001>031-035>038-043-044-053-054-180400-
...NORTHERN AND WESTERN MISSOURI...

CITY           SKY/WX    TMP DP  RH WIND       PRES   REMARKS
KANSAS CTY INT CLOUDY    59  58  96 S6        29.47F
KANSAS C DTWN  MOCLDY    62  58  86 CALM      29.47S
LEE`S SUMMIT   CLOUDY    63  61  93 S9        29.49S
ST JOSEPH      FOG       49  49 100 N5        29.48R VSB 3/4
CHILLICOTHE      N/A     59  56  89 SE5       29.50F
KIRKSVILLE     CLOUDY    56  55  97 SE7       29.52F

$$
MOZ066>068-077>081-088>096-101>105-180400-
...SOUTHWEST MISSOURI...

CITY           SKY/WX    TMP DP  RH WIND       PRES   REMARKS
SPRINGFIELD    PTCLDY    65  61  87 S18       29.59F
JOPLIN         PTCLDY    71  63  75 S21G33    29.55S
BRANSON        PTCLDY    68  59  73 S9G20     29.65S

$$
MOZ032>034-039>042-045>050-055>058-069>072-180400-
...CENTRAL MISSOURI...

CITY           SKY/WX    TMP DP  RH WIND       PRES   REMARKS
COLUMBIA       PTCLDY    62  58  86 S13       29.54F
JEFFERSON CITY MOCLDY    66  58  75 S8        29.54F
ROLLA          CLEAR     63  59  87 S18G25    29.60F
SEDALIA        PTCLDY    65  61  87 S12       29.52S
WHITEMAN AFB   CLEAR     62  58  87 S9        29.46F
WARRENSBURG    CLOUDY    61  55  82 S7        29.49F
OSAGE BEACH    MOCLDY    65  60  84 S10       29.56F

$$
MOZ051-052-059>065-180400-
...EAST CENTRAL MISSOURI...

CITY           SKY/WX    TMP DP  RH WIND       PRES   REMARKS
ST LOUIS INTL  MOCLDY    57  51  80 SE8       29.62F
SPIRIT OF STL  MOCLDY    61  56  83 S12G18    29.60F
ST CHARLES     CLOUDY    57  51  80 S9        29.61F

$$
MOZ072>076-082>087-097>100-106>115-180400-
...SOUTH CENTRAL AND SOUTHEAST MISSOURI...

CITY           SKY/WX    TMP DP  RH WIND       PRES   REMARKS
CAPE GIRARDEAU CLOUDY    63  52  67 S16G24    29.72R
FARMINGTON     CLOUDY    62  57  83 S10       29.68F
POPLAR BLUFF   CLOUDY    67  58  72 S12       29.70R
WEST PLAINS    CLOUDY    66  61  84 S12G21    29.68S

$$



USA.gov is the U.S. government's official web portal to all federal, state and local government web resources and services.